Weather in Novopichugovo

Russia / Novosibirsk Oblast     54°36′32″N   82°20′45″E
temp.,
°C
wind,
m/s
gust,
m/s
humid.,
%
clouds,
%
prec.,
mm/h
press.,
hPa
HPBL,
m
3 march, wed
wed301:00−17wsw229694 0.1 101720
04:00−18wsw129787 0.0 101720
07:00−18sw239685 0.1 101822
10:00−16sw239581 0.1 1018117
13:00−13sw249183 0.1 1019337
16:00−9sw368995 0.1 1020546
19:00−12ssw469297 0.1 1021111
22:00−13ssw5119288 0.0 1022279
4 march, thu
thu401:00−15ssw5119277 0.0 1022265
04:00−13ssw7139093 0.0 1021400
07:00−11ssw7148897 0.1 1021502
10:00−9ssw81587100 0.0 1020537
13:00−7ssw91488100 0.0 1019612
16:00−5ssw91589100 0.1 1018682
19:00−4ssw81688100 0.1 1017663
22:00−5ssw81686100 0.0 1016552
5 march, fri
fri501:00−6ssw81686100 0.0 1014440
04:00−7ssw71684100 0.0 1013390
07:00−8ssw71583100 0.0 1012442
10:00−6ssw91688100 0.0 1011645
13:00−2sw101688100 0.3 10121345
16:00−3wsw9148160 0.1 10151028
19:00−6sw8158280 0.1 1018554
22:00−6sw91692100 0.8 1018942
6 march, sat
sat601:00−5sw81591100 1.2 1019752
04:00−6sw71493100 0.3 1019598
07:00−6ssw81594100 0.9 1019620
10:00−5ssw91690100 0.9 1018762
13:00−5ssw101781100 0.9 1016771
16:00−4ssw10188089 0.0 1013814
19:00−4sw9188388 0.0 1012748
22:00−5sw91885100 0.0 1012688
7 march, sun
sun701:00−4sw91691100 0.1 1013709
04:00−3wsw71492100 0.3 1014693
07:00−5sw51291100 0.4 1017429
10:00−6ssw51093100 0.0 1018330
13:00−4ssw5990100 0.0 1017524
16:00−2ssw71190100 0.1 1016613
19:00−3ssw71389100 0.1 1014518
22:00−3ssw71684100 0.0 1014463